This demonstration page uses our WeatherBlox Daily Observations layout. Learn more.

Hourly Observations for August 19, 2015

Temp ( °F °C ) Dew Point ( °F °C ) Humidity (%) Winds ( mph kmh ) Pressure ( in mb ) Visibility ( mi km ) Precip ( " mm )
12:15 am 00:15 Clear 53 11.5 49 9.7 89 89 NW 5 7 29.91 1013 10 16.0934 0 0
12:35 am 00:35 Clear 52 11 49 9.5 91 91 NW 5 7 29.97 1015 10 16.0934 0 0
12:55 am 00:55 Clear 52 11 49 9.4 90 90 NW 6 9 29.97 1015 10 16.0934 0 0
1:15 am 01:15 Clear 52 11.2 49 9.4 89 89 NW 5 7 29.97 1015 10 16.0934 0 0
1:35 am 01:35 Clear 52 11 49 9.4 90 90 WNW 5 7 29.97 1015 10 16.0934 0 0
1:55 am 01:55 Clear 51 10.7 48 9.1 90 90 NW 7 11 29.97 1015 10 16.0934 0 0
2:15 am 02:15 Clear 51 10.8 48 9.1 89 89 WNW 6 9 29.97 1015 10 16.0934 0 0
2:35 am 02:35 Clear 51 10.5 48 9 91 91 NW 5 7 29.97 1015 10 16.0934 0 0
2:55 am 02:55 Clear 50 10.1 48 8.8 92 92 NW 5 7 29.97 1015 10 16.0934 0 0
3:15 am 03:15 Clear 50 10.2 48 8.8 91 91 WNW 5 7 29.97 1015 10 16.0934 0 0
3:35 am 03:35 Clear 50 10 47 8.5 91 91 WNW 6 9 29.97 1015 10 16.0934 0 0
3:55 am 03:55 Clear 50 9.9 48 8.8 93 93 NW 7 11 29.97 1015 10 16.0934 0 0
4:15 am 04:15 Clear 50 10.1 48 8.7 91 91 NW 6 9 29.97 1015 10 16.0934 0 0
4:35 am 04:35 Clear 51 10.3 48 8.8 91 91 WNW 7 11 29.97 1015 10 16.0934 0 0
4:55 am 04:55 Clear 51 10.4 48 9 91 91 WNW 6 9 29.97 1015 10 16.0934 0 0
5:15 am 05:15 Clear 51 10.7 48 9.1 90 90 WNW 9 15 29.97 1015 10 16.0934 0 0
5:35 am 05:35 Clear 51 10.7 48 9.1 90 90 NW 9 15 30 1016 10 16.0934 0 0
5:55 am 05:55 Clear 51 10.7 49 9.2 91 91 WNW 8 13 30 1016 10 16.0934 0 0
6:15 am 06:15 Clear 52 11 49 9.3 89 89 NW 9 15 30 1016 10 16.0934 0 0
6:35 am 06:35 Clear 52 11 49 9.5 91 91 WNW 8 13 30 1016 10 16.0934 0 0
6:55 am 06:55 Sunny 52 11.1 49 9.5 90 90 WNW 10 17 30 1016 10 16.0934 0 0
7:15 am 07:15 Sunny 52 11.2 49 9.5 89 89 NW 12 19 30 1016 10 16.0934 0 0
7:35 am 07:35 Sunny 52 11 49 9.3 89 89 WNW 10 17 30 1016 10 16.0934 0 0
7:55 am 07:55 Sunny 53 11.5 49 9.6 88 88 WNW 8 13 30 1016 10 16.0934 0 0
8:15 am 08:15 Sunny 54 12 49 9.7 86 86 NW 10 17 30.03 1017 10 16.0934 0 0
8:35 am 08:35 Sunny 54 12 49 9.7 86 86 NW 12 19 30.03 1017 10 16.0934 0 0
8:55 am 08:55 Sunny 55 12.6 50 9.9 84 84 NW 9 15 30 1016 10 16.0934 0 0
9:15 am 09:15 Sunny 56 13.5 50 9.9 79 79 NW 14 22 30 1016 10 16.0934 0 0
9:35 am 09:35 Sunny 56 13.1 49 9.7 80 80 NW 8 13 30 1016 10 16.0934 0 0
9:55 am 09:55 Sunny 59 15 50 10 72 72 NNW 13 20 30 1016 10 16.0934 0 0
10:15 am 10:15 Sunny 58 14.6 49 9.5 72 72 NW 10 17 30 1016 10 16.0934 0 0
10:35 am 10:35 Sunny 59 14.8 49 9.5 71 71 NNW 12 19 30 1016 10 16.0934 0 0
10:55 am 10:55 Sunny 59 14.9 50 10.1 73 73 NW 12 19 30 1016 10 16.0934 0 0
11:15 am 11:15 Sunny 62 16.7 51 10.3 66 66 NW 10 17 29.94 1014 10 16.0934 0 0
11:35 am 11:35 Sunny 64 17.8 51 10.3 62 62 NNW 9 15 29.94 1014 10 16.0934 0 0
11:55 am 11:55 Sunny 65 18.2 51 10.3 60 60 NW 10 17 29.97 1015 10 16.0934 0 0
12:15 pm 12:15 Sunny 65 18.2 51 10.3 60 60 NW 12 19 29.94 1014 10 16.0934 0 0
12:35 pm 12:35 Sunny 66 18.9 51 10.5 58 58 NW 14 22 29.94 1014 10 16.0934 0 0
12:55 pm 12:55 Sunny 67 19.5 51 10.3 55 55 NW 13 20 29.91 1013 10 16.0934 0 0
1:15 pm 13:15 Partly Cloudy 67 19.4 50 10.1 55 55 NW 9 15 29.94 1014 10 16.0934 0 0
1:35 pm 13:35 Partly Cloudy 68 20.2 50 9.9 52 52 NW 13 20 29.91 1013 10 16.0934 0 0
1:55 pm 13:55 Partly Cloudy 69 20.8 50 10.2 51 51 NW 13 20 29.91 1013 10 16.0934 0 0
2:15 pm 14:15 Mostly Cloudy 68 20 51 10.5 54 54 WNW 10 17 29.91 1013 10 16.0934 0 0
2:35 pm 14:35 Partly Cloudy 70 21.3 50 9.9 48 48 WNW 12 19 29.91 1013 10 16.0934 0 0
2:55 pm 14:55 Partly Cloudy 70 21.2 48 8.9 45 45 NW 13 20 29.88 1012 10 16.0934 0 0
3:15 pm 15:15 Partly Cloudy 71 21.5 48 9 45 45 NW 12 19 29.88 1012 10 16.0934 0 0
3:35 pm 15:35 Sunny 72 22 49 9.4 45 45 NW 9 15 29.88 1012 10 16.0934 0 0
3:55 pm 15:55 Sunny 72 22.2 47 8.5 42 42 NW 12 19 29.88 1012 10 16.0934 0 0
4:15 pm 16:15 Partly Cloudy 73 22.5 46 8 39 39 WNW 9 15 29.85 1011 10 16.0934 0 0
4:35 pm 16:35 Mostly Cloudy 70 21 47 8.6 45 45 W 14 22 29.88 1012 10 16.0934 0 0
4:55 pm 16:55 Mostly Cloudy 72 22.2 49 9.2 44 44 W 15 24 29.88 1012 10 16.0934 0 0
5:15 pm 17:15 Mostly Cloudy 72 22.2 48 9 43 43 W 13 20 29.88 1012 10 16.0934 0 0
5:35 pm 17:35 Partly Cloudy 71 21.8 48 8.8 44 44 WNW 8 13 29.88 1012 10 16.0934 0 0
5:55 pm 17:55 Sunny 72 22 47 8.2 41 41 WNW 9 15 29.88 1012 10 16.0934 0 0
6:15 pm 18:15 Sunny 72 22.1 48 9 43 43 WNW 10 17 29.85 1011 10 16.0934 0 0
6:35 pm 18:35 Sunny 72 22 48 8.7 43 43 WNW 8 13 29.85 1011 10 16.0934 0 0
6:55 pm 18:55 Sunny 71 21.5 49 9.2 46 46 WNW 7 11 29.88 1012 10 16.0934 0 0
7:15 pm 19:15 Sunny 70 21.2 49 9.2 46 46 WNW 6 9 29.85 1011 10 16.0934 0 0
7:35 pm 19:35 Sunny 69 20.4 50 10.1 52 52 W 6 9 29.85 1011 10 16.0934 0 0
7:55 pm 19:55 Sunny 67 19.4 51 10.3 56 56 W 6 9 29.85 1011 10 16.0934 0 0
8:15 pm 20:15 Sunny 65 18.5 51 10.3 59 59 W 6 9 29.91 1013 10 16.0934 0 0
8:35 pm 20:35 Clear 64 17.5 51 10.6 64 64 W 6 9 29.91 1013 10 16.0934 0 0
8:55 pm 20:55 Clear 63 17.2 51 10.6 65 65 W 5 7 29.91 1013 10 16.0934 0 0
9:15 pm 21:15 Clear 62 16.4 51 10.6 69 69 W 5 7 29.91 1013 10 16.0934 0 0
9:35 pm 21:35 Clear 60 15.8 51 10.5 71 71 WSW 6 9 29.91 1013 10 16.0934 0 0
9:55 pm 21:55 Clear 58 14.7 52 10.9 78 78 SW 3 6 29.94 1014 10 16.0934 0 0
10:15 pm 22:15 Clear 59 14.9 52 10.9 77 77 Calm 29.97 1015 10 16.0934 0 0
10:35 pm 22:35 Clear 59 15 52 11 77 77 SW 3 6 29.97 1015 10 16.0934 0 0
10:55 pm 22:55 Clear 59 14.8 51 10.6 76 76 SW 5 7 29.97 1015 10 16.0934 0 0
11:15 pm 23:15 Clear 59 15.1 50 10.1 72 72 SW 5 7 29.97 1015 10 16.0934 0 0
11:35 pm 23:35 Clear 59 14.8 50 10 73 73 SW 3 6 29.94 1014 10 16.0934 0 0
11:55 pm 23:55 Clear 58 14.7 49 9.6 72 72 SW 6 9 29.94 1014 10 16.0934 0 0

Powered by AerisWeather